Preview of NWS' New Version of Forecast
This preview is not operational and should not be used for support decisions.

Regional Weather Roundup (RWR)

Issued by Northern Indiana (IWX)

                            
000
ASUS43 KIWX 220410
RWRIWX

KIWX WEATHER ROUNDUP
NATIONAL WEATHER SERVICE NORTHERN INDIANA
1100 PM EST MON JAN 21 2019

NOTE: "FAIR" INDICATES FEW OR NO CLOUDS BELOW 12,000 FEET WITH NO
SIGNIFICANT WEATHER AND/OR OBSTRUCTIONS TO VISIBILITY. 

* THESE STATIONS ARE NOT UNDER NWS QUALITY CONTROL. THEY ALSO MAY NOT 
  REPORT WEATHER SUCH AS PRECIPITATION OR FOG. 

INZ001>027-220500-
NORTHERN INDIANA
  
CITY           SKY/WX    TMP DP  RH WIND       PRES   REMARKS
GARY*          CLOUDY    10  -6  48 SE9       30.42S WCI  -2          
VALPARAISO     MOCLDY     9  -4  55 SE15      30.42S WCI  -8          
MICHIGAN CITY* CLOUDY     9  -8  47 SE7       30.44S WCI  -3          
LAPORTE*       MOCLDY     7  -4  61 SE12      30.44S WCI  -9          
KNOX*          CLOUDY     9  -2  61 SE13      30.44F WCI  -7          
SOUTH BEND     FAIR       5  -6  60 SE15      30.47R WCI -13          
GOSHEN         FAIR       3  -6  66 SE10      30.47F WCI -12          
MONTICELLO*    CLOUDY    10   0  63 SE5       30.42S WCI   2          
LOGANSPORT*    CLOUDY    10   1  67 E15       30.45S WCI  -6          
ROCHESTER*     FAIR      10   0  61 SE9       30.46S WCI  -2          
WARSAW*        FAIR       3  -6  66 SE10      30.46F WCI -12          
KENDALLVILLE*  FAIR       0 -11  61 SE8       30.49F WCI -14          
AUBURN*        FAIR       1  -8  66 E6        30.52F WCI -10          
FORT WAYNE     FAIR       4  -5  66 E9        30.50F WCI -10          
HUNTINGTON*    FAIR       3  -6  66 E7        30.49S WCI  -9          
PERU/GRISSOM   FAIR       9   1  69 SE15      30.43S WCI  -8          

$$
INZ028>050-220500-
CENTRAL INDIANA
  
CITY           SKY/WX    TMP DP  RH WIND       PRES   REMARKS
LAFAYETTE      MOCLDY    13   3  64 E10       30.40F WCI   0          
KOKOMO*        FAIR       8   2  76 SE13      30.44F WCI  -8          
MUNCIE*        FAIR      11  -2  56 SE12      30.44F WCI  -3          
INDIANAPOLIS   CLOUDY    14   3  61 SE15      30.41F WCI  -1          

$$
MIZ043>046-050>051-056>058-064>065-071>073-077>080-220500-
SOUTHWEST LOWER MICHIGAN
  
CITY           SKY/WX    TMP DP  RH WIND       PRES   REMARKS
BATTLE CREEK   FAIR       2 -11  54 S8        30.49S WCI -12          
BENTON HARBOR  MOCLDY     7 -11  43 SE10G22   30.46S WCI  -8          
COLDWATER*     FAIR       2 -10  57 SE6       30.50S WCI -10          
HILLSDALE*     FAIR       0 -11  58 SE6       30.48S WCI -11          
HOLLAND        FAIR       8 -11  41 SE13      30.46F WCI  -8          
GRAND RAPIDS   MOCLDY     6 -10  47 E8        30.47F WCI  -7          
KALAMAZOO      FAIR       2 -12  52 SE6       30.48F WCI  -9          
STURGIS*       FAIR       4  -7  61 SE10      30.47F WCI -12          
THREE RIVERS*  FAIR       3 -10  55 E7        30.49F WCI -10          

$$
OHZ001>008-015>018-024>025-220500-
NORTHWEST OHIO
  
CITY           SKY/WX    TMP DP  RH WIND       PRES   REMARKS
DEFIANCE       FAIR      -2 -10  69 SE3       30.56S                  
FINDLAY        FAIR       0  -8  69 SE6       30.54F WCI -12          
OTTAWA*        FAIR      -4 -11  71 SE5       30.58R WCI -15          
TOLEDO EXPRESS FAIR      -5 -11  75 CALM      30.57F                  
LIMA           FAIR       1  -7  68 SE12      30.52R WCI -16          

$$
AND FOR LAKE MICHIGAN COASTAL AND OPEN LAKE BUOY OBSERVATIONS
  
STATION/POSITION TEMP    WIND        PRES    VSBY  WAVE
                 AIR SEA DIR/SP/G                  HT/PER
                 (F)     (DEG/KT/KT) (MB)    (MI)  (FT/S)
CALUMET HARBOR    11     140/  9/ 12 1029.1S
BURNS HARBOR      10     130/  4/  9 1030.5S
SAINT JOSEPH       7     160/  3/ 10 1031.8

$$
&&